Overview Statistics Trail Chart Weather Telemetry Raw packets
 

This is the latest recevied weather packets stored in our database for station/object K1RFS. If no packets are shown the sender has not sent any weather packets the latest 10 day(s).

<< 107 108 109 110 111 112 113 >>
Time Temp. Humidity Pressure Rain* Wind** Luminosity Snow
1787884264 25.56° C 40% 1004 hPa 0 mm - 0 W/m² -
1787883959 25.56° C 40% 1004.4 hPa 0 mm - 0 W/m² -
1787883659 25.56° C 39% 1004.1 hPa 0 mm - 0 W/m² -
1787883355 26.67° C 38% 1004.4 hPa 0 mm - 1 W/m² -
1787883053 27.22° C 36% 1004.2 hPa 0 mm - 1 W/m² -
1787882750 27.78° C 34% 1004.4 hPa 0 mm - 2 W/m² -
1787882446 27.78° C 34% 1004.2 hPa 0 mm - 4 W/m² -
1787882141 27.78° C 33% 1004.2 hPa 0 mm - 5 W/m² -
1787881840 27.78° C 33% 1004.4 hPa 0 mm - 7 W/m² -
1787881536 27.78° C 33% 1004.2 hPa 0 mm - 11 W/m² -
1787881232 27.78° C 33% 1004.6 hPa 0 mm - 15 W/m² -
1787880928 28.33° C 33% 1004.5 hPa 0 mm - 17 W/m² -
1787880627 28.33° C 33% 1004.4 hPa 0 mm - 19 W/m² -
1787880326 28.33° C 33% 1004.4 hPa 0 mm - 18 W/m² -
1787880021 28.33° C 33% 1004.5 hPa 0 mm - 19 W/m² -
1787879716 28.33° C 32% 1004.5 hPa 0 mm - 20 W/m² -
1787879411 28.33° C 32% 1004.5 hPa 0 mm - 24 W/m² -
1787879107 28.33° C 33% 1004.4 hPa 0 mm - 35 W/m² -
1787878803 28.33° C 33% 1004.4 hPa 0 mm - 31 W/m² -
1787878501 28.33° C 33% 1004.6 hPa 0 mm - 30 W/m² -
1787878197 28.33° C 33% 1004.5 hPa 0 mm - 32 W/m² -
1787877893 28.89° C 32% 1004.4 hPa 0 mm - 35 W/m² -
1787877588 28.89° C 32% 1004.5 hPa 0 mm - 50 W/m² -
1787877284 29.44° C 31% 1004.5 hPa 0 mm - 43 W/m² -
1787876983 30° C 30% 1004.6 hPa 0 mm - 51 W/m² -

* Rain latest hour (hover to see other rain measurements)
** Current wind speed in m/s (hover to see current wind gust speed)